Regional Weather Roundup
Issued by NWS Newport/Morehead, NC

Current Version | Previous Version | Graphics & Text | Print | Product List | Glossary On
Versions: 1 2 3 4 5 6 7 8 9 10 11 12 13 14 15 16 17 18 19 20 21 22 23 24 25 26 27 28 29 30 31 32 33 34 35 36 37 38 39 40 41 42 43 44 45 46 47 48 49 50
000 ASUS42 KMHX 250225 RWRMHX WEATHER ROUNDUP FOR EASTERN NORTH CAROLINA NATIONAL WEATHER SERVICE NEWPORT/MOREHEAD CITY NC 900 PM EST SAT FEB 24 2018 NOTE: "FAIR" INDICATES FEW OR NO CLOUDS BELOW 12,000 FEET WITH NO SIGNIFICANT WEATHER AND/OR OBSTRUCTIONS TO VISIBILITY NCZ015>017-031-032-045>047-102-103-250300- NORTH COAST CITY SKY/WX TMP DP RH WIND PRES REMARKS EDENTON FAIR 66 62 86 S8 30.11F ELIZABETH CITY FAIR 67 63 87 S8 30.10S KITTY HAWK FAIR N/A N/A N/A S5 30.11F MANTEO FAIR 62 60 94 SW9 30.13S $$ NCZ045>047-081-094-103-104-250300- CENTRAL COAST CITY SKY/WX TMP DP RH WIND PRES REMARKS FRISCO FAIR 64 63 96 SW8 30.15S $$ NCZ095-097-098-100-101-250300- SOUTHERN COAST CITY SKY/WX TMP DP RH WIND PRES REMARKS BEAUFORT FAIR 65 62 90 SW10 30.16R CEDAR ISLAND NOT AVBL JACKSONVILLE FAIR 66 63 90 SW10 30.14R PINEY ISLAND NOT AVBL WILMINGTON FAIR 67 64 90 S8 30.15S $$ NCZ011>013-027>030-043-044-078>080-089-090>093-098-250300- COASTAL PLAIN CITY SKY/WX TMP DP RH WIND PRES REMARKS AHOSKIE FAIR 64 60 87 S3 30.09S CLINTON FAIR 67 64 89 S6 30.11F ELIZABETHTOWN NOT AVBL GOLDSBORO FAIR 69 62 76 S7 30.09S GREENVILLE FAIR 70 61 73 S10 30.12R HAVELOCK NOT AVBL KENANSVILLE FAIR 68 63 83 CALM 30.13S KINSTON FAIR 70 61 73 S12 30.12S NEW BERN FAIR 65 62 90 S8 30.15R RICHLANDS FAIR 66 62 87 S7 30.14S ROCKY MOUNT FAIR 66 58 75 S6 30.09S WASHINGTON FAIR 68 62 82 S7 30.12S WHITEVILLE FAIR 68 62 82 S8 30.13S $$ AMZ130-135-150-152-154-156-158-170-250-252-270-ANZ085-086-088-633-658-670-250300- MARINE OBSERVATIONS STATION/POSITION TIME TEMP WIND PRES WAVE SWELL AIR SEA DIR/SP/G HT/PER HT/PER (UTC) (F) (DEG/KT/KT) (MB) (FT/S) (FT/S) CHESAPEAKE LIGHT NOT AVBL 64 E VA BEACH 0150 55 50 210/ 12/ 14 1020.2 3/ 9 3/ 9 DUCK 0200 65 47 200/ 12/ 14 1019.1 2 E DUCK 0200 48 N/A 2/ 9 2/12 OREGON INLET 0200 61 60 200/ 10/ 12 1020.2 13E OREGON INLT 0148 49 N/A 3/ 9 3/ 9 HATTERAS CG 0200 65 62 210/ 8/ 12 1020.8 DIAMOND BUOY 0210 72 74 230/ 17/ 21 1021.5 CAPE LOOKOUT 0200 210/ 10/ 13 1021.6 BEAUFORT LAB 0200 64 61 210/ 6/ 9 1021.3 30 SE NEW RVR IN 0108 71 69 210/ 12/ 14 1021.5 30 SE NEW RVR IN 0200 69 N/A 4/10 2/11 27 SE WRIGHTSVLE 0108 70 69 220/ 12/ 19 1021.5 5 SE WRIGHTSVLE 0208 62 59 220/ 6/ 10 1021.0 225 S CAPE HAT 0150 72 73 180/ 10/ 12 1024.0 6/ 9 5/ 9 41 SE CHARLESTON 0210 70 70 150/ 8/ 10 1021.3 $$

USA.gov is the U.S. government's official web portal to all federal, state and local government web resources and services.